Probability
0 0 0 0 0 0 0 0 0 3 0 0 3 3 3 3 3 6 3 6 6 6 6 10 10 13 16 16 16 19 26 29 29 26 26 26 26 29 26 23 23 23 19 19
0 0 0 0 0 0 0 0 0 0 0 0 0 3 3 0 6 10 6 6 10 6 10 10 13 16 16 10 13 13 19 23 23 26 23 23 26 19 23 16 19 16 19 19
0 0 0 0 0 0 0 3 0 0 0 0 0 3 3 0 13 10 13 10 10 6 6 10 10 13 16 10 6 10 13 13 16 19 19 19 19 16 19 19 13 13 13 13
0 0 0 0 0 0 0 3 0 0 0 0 0 3 3 6 10 10 13 10 6 6 6 6 10 10 10 6 6 10 10 13 13 19 19 19 16 16 13 13 13 13 13 13
0 0 0 0 0 0 0 6 3 0 0 0 3 10 6 6 10 10 10 6 10 10 6 6 10 10 10 10 6 6 10 10 10 10 16 19 16 13 13 13 13 13 13 10
0 0 0 0 0 0 0 6 10 6 3 0 0 3 6 6 10 10 10 6 6 10 10 10 13 6 10 10 6 6 6 10 13 13 13 13 10 10 10 10 10 13 13 10
0 0 0 0 0 0 0 3 6 6 3 3 3 3 6 6 6 10 6 10 10 10 10 10 10 10 10 6 6 6 6 6 10 13 16 13 13 10 13 13 10 10 13 10
0 0 0 0 0 3 0 3 3 3 3 3 3 3 6 6 6 6 6 10 10 6 10 10 10 10 10 10 10 6 6 6 6 6 16 16 13 13 13 10 10 10 6 6
0 0 0 0 0 0 0 3 3 3 3 3 3 3 3 6 10 6 6 10 10 10 10 6 10 6 10 10 10 10 10 6 6 10 13 13 16 10 10 10 10 13 13 6
0 0 0 0 0 0 0 0 3 3 3 3 3 3 6 10 10 10 10 10 10 10 10 10 10 6 6 6 10 13 13 13 6 10 10 10 10 10 10 10 10 10 10 13
0 0 0 0 0 0 0 0 0 3 3 3 3 6 6 10 10 10 10 10 13 6 10 10 6 3 3 3 6 13 10 10 10 10 6 6 6 6 6 6 6 10 10 6
0 0 3 0 0 0 0 0 0 0 0 0 6 6 6 6 6 6 10 10 10 6 10 6 6 3 0 3 6 10 6 6 10 6 6 6 6 3 3 3 3 0 0 0
0 0 0 0 0 0 0 0 0 0 0 0 3 6 6 6 6 6 6 6 10 10 6 6 6 3 3 3 0 3 10 6 6 3 3 3 3 3 3 0 0 0 0 0
0 0 0 0 0 0 0 0 0 0 0 3 3 3 6 6 6 6 6 6 6 10 6 10 6 3 3 3 3 0 3 3 6 3 3 3 3 3 3 3 0 0 0 0
0 0 0 0 0 0 0 0 3 3 3 3 0 0 3 6 6 6 6 6 6 13 6 6 6 3 3 3 3 3 3 0 0 3 3 3 3 3 3 0 0 0 0 0
0 0 0 0 0 0 0 3 3 3 0 0 0 0 0 0 0 3 6 6 6 6 6 6 6 3 3 3 3 3 3 3 0 0 0 3 3 3 3 3 3 0 0 0
0 0 0 0 0 3 3 0 0 0 0 0 0 0 0 0 0 0 3 6 6 6 6 6 6 3 3 3 3 3 3 3 0 0 0 0 3 3 3 3 3 0 0 0
0 0 0 0 0 0 0 0 0 0 0 0 0 0 0 0 0 3 3 3 3 3 3 6 6 6 3 3 3 3 3 3 0 0 0 0 0 0 0 0 0 0 0 0
0 0 0 0 0 0 0 0 0 0 0 0 0 0 0 3 0 0 3 3 3 3 3 3 6 6 6 3 3 3 3 3 3 3 0 0 0 0 0 0 0 0 0 0
0 0 0 0 0 0 0 0 0 0 0 0 0 0 0 0 0 0 0 0 3 3 3 3 3 3 3 6 3 3 3 3 3 3 3 0 0 0 0 0 0 0 0 0
0 3 3 3 3 0 0 0 0 0 0 0 0 0 0 0 0 0 0 0 0 0 3 3 3 3 3 3 0 0 6 6 3 3 0 0 0 0 0 0 0 0 0 0
3 3 0 0 0 0 0 0 0 0 0 0 0 0 0 0 0 0 0 0 0 0 0 0 3 3 3 3 0 3 3 6 3 3 0 0 0 0 0 0 0 0 0 0
3 3 0 0 0 0 0 0 0 0 0 0 0 0 0 0 0 0 0 0 0 0 0 0 0 0 0 0 0 0 0 0 3 0 0 0 0 0 0 0 0 0 0 0
0 0 0 0 0 0 0 0 0 0 0 0 0 0 0 0 0 0 0 0 0 0 0 0 0 0 0 0 0 0 0 0 0 0 0 0 0 0 0 0 0 0 0 0
0 0 0 0 0 0 0 0 0 0 0 0 0 0 0 0 0 0 0 0 0 0 0 0 0 0 0 0 0 0 0 0 0 0 0 0 0 0 0 0 0 0 0 0
0 0 0 0 0 0 0 0 0 0 0 0 0 0 0 0 0 0 0 0 0 0 0 0 0 0 0 0 0 0 0 0 0 0 0 0 0 0 0 0 0 0 0 0
0 0 0 0 0 0 0 0 0 0 0 0 0 0 0 0 0 0 0 0 0 0 0 0 0 0 0 0 0 0 0 0 0 0 0 0 0 0 0 0 0 0 0 0
Height
5822 5823 5824 5825 5826 5827 5828 5828 5829 5830 5830 5831 5831 5831 5831 5831 5831 5831 5831 5831 5831 5830 5830 5829 5828 5828 5827 5826 5824 5824 5823 5823 5822 5822 5821 5820 5820 5819 5819 5817 5817 5817 5817 5817
5817 5818 5819 5820 5821 5822 5823 5823 5824 5824 5825 5826 5826 5826 5826 5826 5826 5825 5825 5825 5825 5824 5824 5824 5823 5822 5821 5820 5819 5818 5818 5817 5816 5816 5815 5815 5814 5813 5812 5812 5811 5811 5811 5811
5812 5812 5813 5815 5816 5816 5817 5817 5818 5819 5820 5820 5820 5820 5820 5820 5820 5820 5819 5819 5819 5818 5818 5818 5817 5816 5815 5814 5813 5812 5812 5811 5810 5809 5809 5808 5808 5806 5805 5805 5805 5804 5804 5804
5806 5807 5808 5811 5809 5810 5810 5811 5812 5813 5813 5814 5814 5814 5814 5814 5814 5814 5813 5812 5812 5812 5812 5811 5810 5809 5808 5807 5806 5806 5805 5804 5804 5803 5802 5801 5801 5800 5799 5798 5798 5798 5797 5797
5800 5800 5802 5803 5803 5803 5804 5805 5805 5806 5807 5807 5807 5808 5808 5808 5808 5807 5806 5806 5806 5805 5805 5804 5803 5803 5802 5800 5799 5798 5798 5797 5796 5796 5795 5794 5794 5793 5793 5792 5791 5790 5790 5790
5794 5795 5796 5799 5798 5797 5799 5798 5799 5800 5800 5800 5800 5801 5802 5801 5801 5800 5799 5799 5798 5798 5798 5797 5796 5795 5794 5793 5792 5791 5790 5790 5789 5788 5788 5787 5787 5786 5785 5785 5784 5783 5782 5782
5787 5788 5790 5792 5791 5792 5793 5793 5793 5793 5793 5794 5794 5794 5795 5794 5793 5793 5792 5791 5791 5790 5790 5789 5789 5788 5787 5786 5784 5784 5783 5782 5781 5781 5780 5780 5779 5779 5778 5777 5776 5775 5774 5774
5781 5782 5785 5784 5784 5785 5786 5786 5786 5786 5786 5786 5786 5786 5786 5786 5785 5785 5784 5783 5783 5782 5782 5781 5780 5780 5779 5778 5777 5776 5775 5774 5773 5773 5772 5772 5771 5771 5770 5769 5769 5768 5767 5766
5776 5777 5777 5776 5776 5777 5778 5779 5779 5779 5779 5779 5779 5778 5778 5778 5777 5777 5776 5776 5775 5774 5774 5773 5772 5772 5771 5770 5769 5768 5767 5766 5765 5765 5764 5764 5763 5762 5762 5761 5761 5760 5759 5759
5768 5769 5769 5769 5769 5769 5770 5771 5771 5771 5771 5771 5771 5770 5770 5769 5769 5769 5768 5768 5767 5766 5766 5765 5764 5764 5763 5762 5760 5759 5758 5757 5757 5756 5756 5755 5755 5754 5753 5753 5752 5752 5752 5751
5762 5762 5762 5762 5763 5763 5763 5763 5763 5763 5763 5763 5762 5762 5762 5762 5762 5761 5760 5760 5759 5758 5757 5756 5756 5755 5755 5753 5752 5751 5751 5750 5749 5748 5748 5747 5746 5745 5745 5745 5744 5744 5743 5743
5755 5756 5756 5756 5756 5756 5756 5756 5756 5756 5756 5755 5755 5754 5754 5754 5753 5753 5752 5752 5751 5750 5749 5749 5748 5747 5747 5746 5745 5744 5743 5742 5741 5740 5740 5739 5738 5738 5737 5736 5736 5735 5734 5734
5747 5748 5748 5749 5749 5749 5749 5750 5750 5750 5749 5748 5747 5746 5746 5746 5745 5745 5745 5744 5743 5743 5742 5741 5741 5740 5740 5739 5738 5737 5736 5735 5734 5733 5732 5731 5730 5730 5729 5728 5727 5726 5725 5725
5740 5740 5740 5741 5742 5742 5742 5742 5742 5742 5742 5741 5740 5739 5739 5738 5738 5737 5736 5736 5735 5735 5735 5734 5734 5733 5733 5732 5731 5730 5729 5728 5727 5726 5725 5723 5722 5721 5720 5719 5718 5717 5716 5716
5733 5732 5733 5733 5734 5735 5735 5735 5735 5735 5734 5734 5733 5731 5731 5730 5730 5729 5729 5728 5728 5728 5727 5727 5727 5726 5725 5725 5724 5723 5722 5720 5719 5718 5717 5716 5714 5713 5712 5711 5710 5709 5708 5708
5726 5725 5725 5726 5727 5727 5727 5728 5728 5728 5727 5726 5725 5724 5723 5723 5723 5722 5722 5721 5721 5721 5721 5720 5720 5719 5718 5718 5717 5715 5714 5713 5712 5710 5709 5708 5706 5705 5704 5703 5702 5701 5700 5699
5719 5719 5718 5719 5720 5720 5721 5721 5721 5721 5720 5719 5718 5718 5717 5716 5716 5716 5715 5715 5714 5714 5713 5713 5713 5712 5711 5710 5709 5708 5707 5705 5704 5702 5701 5700 5698 5697 5696 5695 5694 5693 5691 5690
5712 5712 5712 5712 5713 5713 5714 5714 5714 5713 5713 5712 5712 5711 5710 5710 5710 5709 5709 5708 5708 5707 5707 5706 5705 5704 5703 5702 5701 5700 5699 5698 5696 5695 5693 5692 5691 5689 5688 5687 5686 5684 5683 5682
5705 5705 5706 5706 5707 5707 5707 5707 5707 5706 5706 5705 5705 5704 5704 5703 5703 5703 5702 5702 5701 5701 5700 5699 5698 5697 5696 5695 5694 5692 5691 5690 5689 5687 5686 5684 5683 5681 5680 5679 5678 5677 5675 5674
5699 5699 5699 5700 5700 5700 5700 5700 5700 5700 5699 5698 5698 5697 5697 5696 5696 5696 5696 5695 5694 5694 5693 5692 5691 5690 5688 5687 5686 5684 5683 5682 5681 5679 5678 5676 5675 5673 5672 5671 5670 5669 5668 5667
5693 5693 5693 5693 5693 5693 5693 5693 5693 5693 5692 5692 5691 5691 5690 5690 5689 5689 5688 5688 5688 5686 5686 5685 5684 5683 5681 5680 5678 5677 5675 5674 5673 5671 5670 5668 5667 5666 5664 5663 5662 5661 5660 5659
5687 5687 5687 5687 5687 5687 5687 5687 5686 5686 5685 5685 5684 5683 5683 5682 5682 5682 5681 5681 5680 5680 5679 5678 5677 5675 5674 5672 5671 5669 5668 5667 5665 5664 5663 5661 5659 5658 5657 5656 5654 5654 5653 5651
5682 5682 5682 5681 5681 5681 5681 5680 5680 5679 5678 5678 5677 5677 5676 5675 5675 5675 5675 5674 5673 5673 5672 5671 5669 5668 5666 5665 5664 5663 5661 5660 5659 5657 5656 5654 5652 5651 5650 5649 5647 5646 5645 5644
5676 5676 5676 5676 5675 5675 5675 5674 5674 5673 5672 5671 5671 5670 5669 5669 5669 5668 5668 5667 5667 5666 5665 5664 5662 5660 5659 5658 5657 5656 5655 5654 5652 5651 5649 5648 5646 5645 5644 5642 5641 5640 5638 5637
5670 5670 5670 5670 5670 5670 5669 5669 5668 5667 5666 5665 5665 5664 5664 5663 5663 5663 5662 5662 5661 5660 5658 5656 5655 5653 5652 5651 5650 5649 5648 5647 5646 5644 5643 5642 5640 5639 5637 5636 5634 5633 5632 5630
5664 5665 5665 5665 5664 5664 5664 5663 5663 5662 5661 5660 5660 5659 5659 5658 5657 5657 5656 5656 5655 5654 5652 5650 5649 5648 5646 5645 5644 5643 5642 5641 5640 5638 5637 5636 5634 5633 5631 5630 5628 5626 5625 5623
5659 5659 5659 5659 5659 5659 5658 5658 5657 5657 5656 5656 5655 5655 5654 5653 5652 5652 5651 5651 5650 5649 5647 5646 5644 5643 5641 5640 5638 5637 5636 5634 5633 5632 5630 5629 5627 5626 5625 5623 5622 5620 5619 5617
Wind_Speed
21 22 22 22 22 22 22 22 23 23 23 22 22 23 23 23 22 21 20 20 19 20 20 20 20 20 20 20 20 19 19 19 19 19 19 19 19 20 20 19 19 18 18 19
21 21 23 23 23 23 23 24 24 24 23 23 24 23 23 23 22 21 20 20 20 19 19 20 20 21 21 22 21 21 21 20 20 20 20 20 21 22 22 21 20 19 19 19
21 21 22 23 23 23 23 23 22 23 22 22 23 24 23 22 21 21 21 21 21 21 21 21 21 22 23 23 23 23 22 22 21 22 22 22 23 23 24 23 21 20 21 21
22 22 22 21 22 23 23 23 23 23 24 24 23 23 23 22 22 22 22 22 23 23 23 23 23 23 23 23 23 22 22 22 22 22 22 23 23 23 23 23 23 23 23 23
21 21 21 21 21 22 23 24 24 25 25 24 24 25 25 25 25 25 24 24 24 24 24 24 24 24 24 24 24 24 24 24 24 23 24 24 24 24 24 24 24 23 24 25
22 22 21 20 21 22 24 25 24 25 25 25 25 25 25 25 26 27 27 27 26 26 26 26 26 26 26 25 25 25 25 26 26 25 24 24 24 23 23 24 24 24 24 25
22 22 22 21 21 23 24 25 24 25 25 26 27 26 26 26 27 28 28 27 27 27 28 28 28 27 27 26 26 26 27 27 27 27 26 25 24 24 23 23 24 24 24 23
23 24 23 22 22 23 24 24 25 26 26 26 27 27 27 27 27 27 27 27 27 27 28 28 28 28 27 27 27 27 27 27 27 27 26 25 25 25 25 24 24 24 24 24
23 23 23 23 23 23 24 25 25 26 26 26 27 27 27 27 26 26 26 27 27 27 27 28 28 27 27 28 27 27 26 27 26 26 26 26 26 26 25 25 25 24 24 25
22 22 22 22 23 24 24 25 25 25 26 26 26 27 26 26 26 26 27 27 27 27 27 27 27 27 27 27 28 27 27 26 26 25 25 25 25 25 25 25 25 25 25 25
23 23 23 23 23 23 23 24 25 25 26 26 26 26 27 27 27 26 26 26 26 25 25 25 25 26 26 26 26 25 25 25 25 24 25 25 25 26 26 26 26 26 26 26
24 24 24 24 23 22 21 22 23 23 24 23 24 25 26 26 26 26 25 24 24 23 23 23 24 24 24 24 24 24 24 24 24 25 25 25 26 26 26 27 27 27 27 27
25 25 24 24 24 23 22 22 22 23 23 23 23 23 24 24 25 25 25 24 23 22 22 22 23 23 22 22 22 23 23 24 24 24 25 25 26 26 26 27 27 27 27 27
25 25 25 24 24 24 23 22 22 23 23 23 24 23 24 24 24 24 24 23 23 23 22 21 21 22 22 22 22 23 22 23 23 24 25 25 26 26 26 26 26 26 26 26
24 25 25 24 24 24 23 23 22 22 23 24 25 24 24 24 23 23 23 23 23 22 21 21 20 21 21 22 22 22 22 23 23 24 25 25 25 25 25 25 25 25 25 26
23 24 24 24 23 23 23 23 23 22 22 23 23 23 22 22 21 21 21 22 21 22 22 22 22 22 22 22 22 22 23 23 23 24 24 24 24 24 24 24 24 25 25 25
22 21 21 21 22 22 23 23 23 23 23 23 23 22 21 20 20 20 20 21 21 22 22 22 22 22 22 23 23 23 23 24 24 24 24 23 24 24 23 23 24 24 24 25
20 20 20 20 21 21 22 22 22 22 22 22 22 22 22 20 20 20 20 20 21 21 21 21 22 22 22 23 23 23 23 23 24 24 24 24 24 24 24 24 24 24 24 24
19 19 19 19 20 21 21 21 22 22 22 22 21 22 22 21 20 20 20 21 21 21 21 22 22 22 23 24 24 24 24 24 24 24 24 24 24 24 24 23 23 24 24 24
18 18 18 19 19 19 20 20 21 21 21 21 21 21 21 21 21 21 20 20 21 21 21 21 22 22 23 23 24 24 24 24 24 24 23 24 24 24 23 23 24 24 24 24
16 16 17 18 19 19 20 20 20 20 20 21 21 21 21 21 21 21 20 20 20 21 21 22 22 22 23 23 23 23 23 23 22 23 23 23 24 24 24 24 23 22 23 23
15 16 16 17 18 18 19 19 20 20 20 20 21 21 21 20 20 20 20 19 19 20 21 21 21 22 22 22 22 22 22 22 22 22 22 22 23 23 22 22 22 21 21 22
16 16 16 16 17 17 18 18 19 19 19 20 20 20 20 19 19 19 19 19 19 20 20 21 21 21 22 22 21 21 21 21 21 21 20 21 21 20 21 21 21 20 20 21
17 17 16 16 16 16 16 17 17 18 18 18 19 19 19 19 19 19 18 19 19 19 20 21 21 21 21 20 20 20 20 20 20 20 20 20 20 20 20 20 20 20 20 20
17 17 16 16 15 15 16 16 16 16 16 17 17 17 17 17 18 18 18 18 19 19 19 19 19 19 19 19 19 19 19 18 19 19 19 18 19 19 19 18 19 20 20 20
16 16 16 16 15 15 15 15 15 16 16 15 16 16 16 16 16 16 16 17 17 17 17 16 16 17 17 17 17 18 18 18 19 18 18 18 18 19 18 18 19 19 19 19
15 15 15 15 15 14 14 14 14 15 14 14 14 14 14 14 14 14 15 15 15 15 15 15 14 14 15 15 16 16 17 18 17 17 17 18 18 18 18 18 18 19 19 19
Wind_Direction
240 239 240 242 246 248 248 251 254 256 259 262 261 263 265 266 269 272 275 277 278 278 274 274 276 278 280 282 279 278 280 280 277 278 279 278 277 276 276 275 274 273 271 270
244 244 244 246 248 249 252 256 259 260 261 263 264 266 264 265 270 271 273 274 275 276 273 273 273 276 279 279 279 279 280 280 279 279 279 278 277 278 275 272 271 270 272 272
248 248 248 248 248 247 250 256 260 260 260 262 264 265 264 265 264 267 271 272 274 274 273 273 273 275 276 276 276 277 277 279 279 278 278 278 277 277 275 272 270 270 270 272
253 251 248 248 246 247 251 255 258 258 260 263 265 264 265 266 267 270 270 271 273 273 274 275 275 275 275 276 274 275 276 277 276 277 277 278 277 276 277 275 272 272 272 271
254 252 252 248 248 250 254 257 258 259 261 263 266 265 264 268 271 272 272 273 274 274 275 277 276 277 277 277 274 273 275 276 277 278 278 278 277 277 277 278 277 274 274 273
255 255 254 251 251 255 259 259 259 260 262 264 266 267 268 270 271 273 272 272 273 274 275 277 278 279 279 278 278 277 277 277 277 277 277 278 278 278 277 278 279 277 276 273
255 256 256 255 254 255 258 261 261 262 265 266 268 269 269 270 272 273 272 271 271 272 275 276 277 277 277 277 278 278 277 276 275 274 275 276 277 279 278 277 277 277 275 274
256 260 260 259 257 256 259 262 264 264 266 267 269 270 269 272 273 272 272 273 271 272 274 275 276 276 276 276 276 276 275 273 274 273 273 274 275 277 278 276 275 275 274 272
260 261 264 262 261 262 262 263 265 266 265 266 267 269 270 271 273 273 273 273 273 273 273 275 276 276 277 277 277 276 275 273 272 273 273 273 274 276 277 276 275 274 273 271
261 264 265 265 267 267 266 268 268 267 267 269 267 267 270 272 273 273 272 274 274 273 273 274 274 275 277 278 278 277 276 275 274 272 272 273 274 273 274 274 274 272 271 271
261 263 263 264 267 267 267 267 270 269 269 270 269 271 273 274 274 275 275 274 275 274 275 273 273 274 276 278 278 278 277 276 275 273 272 273 273 273 272 274 274 274 273 271
262 264 264 263 265 267 268 268 269 270 271 271 273 274 275 276 277 277 277 275 275 276 276 275 273 273 275 277 279 278 278 277 275 274 273 273 272 272 272 273 274 274 273 271
264 266 265 263 265 267 267 267 269 272 273 273 275 276 276 277 278 278 278 277 275 276 277 276 274 272 273 276 278 280 279 278 277 276 274 274 274 273 273 274 275 274 273 271
265 266 265 264 265 267 269 270 272 273 274 274 277 278 278 279 280 280 280 279 277 276 278 277 275 273 274 276 278 279 279 278 276 276 276 276 276 275 274 274 275 274 273 273
265 265 265 266 267 268 270 272 275 275 275 275 277 277 277 279 279 278 278 278 277 277 274 272 274 274 274 277 279 279 279 280 279 277 278 278 278 277 275 274 274 273 274 275
266 266 265 264 265 266 269 271 273 274 274 275 276 278 279 280 279 278 277 276 276 275 274 272 274 276 277 278 279 281 282 282 282 281 279 278 278 277 276 275 274 274 273 274
269 266 262 262 262 263 266 270 272 274 275 276 277 278 280 280 279 278 277 276 277 279 278 275 275 277 276 276 277 280 283 283 282 281 280 279 278 277 278 276 275 275 275 275
268 268 266 264 264 265 267 270 273 274 276 278 278 278 279 280 279 278 277 277 278 279 279 280 279 279 279 278 279 280 282 284 283 282 280 279 279 279 279 277 275 275 277 278
267 267 266 265 266 268 270 272 273 274 276 277 278 279 278 278 278 278 279 279 278 277 278 279 280 281 282 282 281 282 283 283 283 282 282 281 281 281 281 278 277 277 277 278
267 267 267 266 267 268 269 270 272 275 277 278 279 279 279 278 278 279 278 278 278 278 279 281 281 282 284 284 283 283 282 283 283 282 281 280 280 281 282 282 280 279 279 278
267 268 269 269 268 269 269 271 273 274 276 278 279 278 277 277 278 278 278 279 279 280 282 283 282 283 285 285 284 284 285 284 284 284 283 281 280 280 281 282 282 281 280 281
268 269 271 271 271 271 271 271 273 274 275 277 278 278 278 279 279 279 279 281 281 282 283 285 284 284 284 284 285 285 285 286 287 286 286 286 284 282 282 283 283 283 285 286
269 270 272 272 272 272 271 273 275 276 276 277 277 279 279 279 280 280 280 281 282 282 283 285 287 286 285 284 285 285 287 287 287 286 287 288 288 286 284 283 283 283 285 287
269 270 272 274 274 272 273 276 279 279 278 278 278 277 278 279 279 280 280 281 282 284 285 287 287 287 286 285 284 285 288 288 287 287 287 289 288 289 289 285 284 284 287 287
268 267 269 273 275 274 273 277 279 278 278 279 278 278 278 278 279 279 280 283 285 287 289 290 289 287 288 287 287 286 286 287 288 288 286 287 287 288 289 288 287 286 288 288
267 265 266 270 273 275 276 276 276 276 277 278 278 277 280 282 282 281 281 283 285 288 291 292 290 289 290 290 290 289 287 287 289 290 289 289 289 290 291 290 291 292 291 289
264 264 265 267 270 273 275 276 277 278 279 279 279 279 281 284 284 284 285 286 287 290 292 293 293 293 294 294 294 293 292 291 291 292 292 291 291 291 292 292 292 294 297 296